Hourly Data Report for June 25, 2012

All times are specified in Local Standard Time (LST). Add 1 hour to adjust for Daylight Saving Time where and when it is observed.

MONCTON INTL A
NEW BRUNSWICK

46°06'44.000" N
64°40'43.000" W
70.70 m
8103201
71705
YQM

Download Data

Hourly Data (June 2012)
Hourly Data Report for June 25, 2012
Temp Definition
°C
Dew Point Temp Definition
°C
Rel Hum Definition
%
Wind Dir Definition
10's deg

Wind Spd Definition
km/h
Visibility Definition
km
Stn Press Definition
kPa
Hmdx Definition


Wind Chill Definition


Weather Definition


TIME
00:00 Legend Double Dagger 13.3 13.0 98 28 8 10.0 100.16     LegendNANA
01:00 Legend Double Dagger 12.8 12.0 95 27 9 10.0 100.17     LegendNANA
02:00 Legend Double Dagger 12.0 11.7 98 24 7 10.0 100.16     Mostly Cloudy
03:00 Legend Double Dagger 11.7 11.6 99 23 9 10.0 100.15     LegendNANA
04:00 Legend Double Dagger 12.4 12.4 100 19 6 10.0 100.16     LegendNANA
05:00 Legend Double Dagger 12.9 12.8 99 16 4 10.0 100.17     Mostly Cloudy
06:00 Legend Double Dagger 13.8 13.0 95 17 6 10.0 100.19     LegendNANA
07:00 Legend Double Dagger 14.9 14.1 95 21 13 10.0 100.23     LegendNANA
08:00 Legend Double Dagger 15.8 14.5 92   0 10.0 100.25     Mostly Cloudy
09:00 Legend Double Dagger 18.6 15.7 83 15 9 10.0 100.26     LegendNANA
10:00 Legend Double Dagger 20.1 16.8 81 12 7 10.0 100.27 25   LegendNANA
11:00 Legend Double Dagger 22.3 17.9 76 17 7 10.0 100.26 28   Mostly Cloudy
12:00 Legend Double Dagger 22.6 17.6 73 12 12 10.0 100.22 28   LegendNANA
13:00 Legend Double Dagger 25.1 18.4 66 16 16 10.0 100.20 31   LegendNANA
14:00 Legend Double Dagger 23.8 15.4 59 15 20 10.0 100.22 28   Mostly Cloudy
15:00 Legend Double Dagger 24.1 14.7 55 17 20 10.0 100.21 28   LegendNANA
16:00 Legend Double Dagger 25.3 13.7 48 17 20 10.0 100.21 28   LegendNANA
17:00 Legend Double Dagger 25.0 14.0 50 18 18 10.0 100.19 28   Mainly Clear
18:00 Legend Double Dagger 24.9 12.3 45 16 14 10.0 100.17 27   LegendNANA
19:00 Legend Double Dagger 23.5 12.6 50 15 14 10.0 100.20 26   LegendNANA
20:00 Legend Double Dagger 20.4 12.0 58 14 22 10.0 100.21     Mostly Cloudy
21:00 Legend Double Dagger 18.7 12.5 67 14 23 10.0 100.27     LegendNANA
22:00 Legend Double Dagger 17.5 13.3 76 15 22 10.0 100.31     LegendNANA
23:00 Legend Double Dagger 17.0 14.5 85 15 23 10.0 100.31     Mostly Cloudy

Notes on Data Quality.

Legend

  • E = Estimated
  • M = Missing
  • NA = Not Available
  • ‡ = Partner data that is not subject to review by the National Climate Archives
Date modified: